THORAD DELTA 1 DEB, 14881

Orbit data source: Space-Track

THORAD DELTA 1 DEB, 14881 is space debris in SSO originally from a launch on Fri, 15 Nov 1974 UTC launched from the Air Force Western Test Range (AFWTR). Debris objects in space refer to the collection of defunct objects orbiting the Earth. Examples of debris include non-operational satellites, rocket bodies, and fragments generated from explosions, collisions, or faulty payload assembly.

Loading next visibility...
Identifier
14881, 1974-089EU
Orbit
SSO
Country
Flag of USUS
Related business
Manufacturer
Unknown
Mission
Spacecraft
Bus & Motor
Unknown
Mass
Unknown
Launch date (UTC)
1974-11-15 (51 years ago)
Launch vehicle
Unknown
Launch site
Air Force Western Test Range (AFWTR)
Object type
Payload
Rocket body
Debris
Shape & HBR
Unknown shape, 0.1 m
Radar Cross Section
Small (<0.1 m²)

Expand to show TLE details & history
Last TLE update: 2 days ago

TLE from 2 days ago
0 THORAD DELTA 1 DEB
1 14881U 74089EU  25285.33073000  .00000025  00000-0  48870-3 0  9995
2 14881 101.7464 236.4150 0066766  84.3871  71.0202 12.42193626  9692
Epoch: 2025-10-12T07:56Z
TLE epoch observation values (Epoch: 2025-10-12T07:56:15.071Z)
Latitude
23.35862°
Longitude
-78.67025°
Altitude
1,483.046 km
Speed
7.132 km/s
True Right ascension
04h 06m 10s
True Declination
23° 14' 43"
Sunlit
Object was in full shadow at epoch
Visualization orbit readout
Latitude
Unknown
Longitude
Unknown
Altitude
Unknown
Speed
Unknown
Apparent Right ascension
Unknown
Apparent Declination
Unknown
Sunlit
N/A
Visualization observer readout
Local Sidereal Time
18:22:36
Azimuth
Unknown
Elevation
Unknown
Doppler factor
Unknown
Orbital elements
Apogee altitude
1,547.44 km
Perigee altitude
1,442.31 km
Semi-major axis
7,873.012 km
Eccentricity
0.00668
Inclination
101.7464°
RAAN
236.415°
Arg. of periapsis
84.3871°
True anomaly
71.74564°
Mean anomaly
71.0202°
Eccentric anomaly
71.38272°
Mean motion
3.10693 °/min
Orbital period
115.87 mins
BSTAR
0.0004887
Loading maneuver chart data...
Computing Atmospheric mass density...

Documentation

Showing up to 5 results
|